This demonstration page uses our WeatherBlox Daily Observations layout. Learn more.

Left ArrowRight Arrow

39.92423, -83.80882

Hourly Observations for February 1, 2020

Temp ( °F °C ) Dew Point ( °F °C ) Humidity (%) Winds ( mph kmh ) Pressure ( in mb ) Visibility ( mi km ) Precip ( " mm )
12:10 am 00:10 Cloudy with Mist and Fog 32 undefined 32 undefined 100 100 NE 6 9 30.14 1021 6 10 N/A
12:28 am 00:28 Cloudy with Mist and Fog 32 undefined 32 undefined 100 100 NE 6 9 30.15 1021 6 10 N/A
12:42 am 00:42 Cloudy with Mist and Fog 32 undefined 32 undefined 100 100 NNE 3 6 30.15 1021 6 10 N/A
12:56 am 00:56 Cloudy with Mist and Fog 32 undefined 32 undefined 100 100 ENE 6 9 30.13 1020 6 10 N/A
1:56 am 01:56 Cloudy with Mist and Fog 32 undefined 32 undefined 100 100 NE 6 9 30.11 1020 5 8 N/A
2:56 am 02:56 Cloudy with Mist and Fog 32 undefined 31 -0.6 96 96 NE 5 7 30.09 1019 5 8 N/A
3:56 am 03:56 Cloudy with Mist and Fog 32 undefined 31 -0.6 96 96 NE 5 7 30.07 1018 5 8 N/A
4:56 am 04:56 Cloudy with Mist and Fog 32 undefined 31 -0.6 96 96 NNE 6 9 30.06 1018 6 10 N/A
5:56 am 05:56 Cloudy 32 undefined 31 -0.6 96 96 NE 5 7 30.05 1018 7 11 N/A
6:56 am 06:56 Cloudy 31 -0.6 31 -0.6 100 100 E 3 6 30.05 1018 7 11 N/A
7:56 am 07:56 Cloudy with Mist and Fog 31 -0.6 31 -0.6 100 100 E 3 6 30.05 1018 6 10 N/A
8:41 am 08:41 Cloudy with Mist and Fog 32 undefined 30 -1 93 93 E 3 6 30.05 1018 6 10 N/A
8:53 am 08:53 Cloudy with Mist and Fog 32 undefined 30 -1 93 93 E 3 6 30.04 1017 6 10 N/A
8:56 am 08:56 Cloudy with Mist and Fog 32 undefined 31 -0.6 96 96 ESE 5 7 30.03 1017 6 10 N/A
9:56 am 09:56 Cloudy 33 0.6 30 -1.1 89 89 SE 6 9 30.02 1017 8 13 N/A
10:56 am 10:56 Cloudy with Mist and Fog 34 1.1 32 undefined 92 92 S 5 7 30.01 1016 6 10 N/A
11:14 am 11:14 Cloudy with Mist and Fog 34 1 32 undefined 93 93 SSE 6 9 30.01 1016 6 10 N/A
11:56 am 11:56 Cloudy with Mist and Fog 35 1.7 33 0.6 93 93 SSW 6 9 29.98 1015 6 10 N/A
12:56 pm 12:56 Cloudy with Mist and Fog 36 2.2 33 0.6 89 89 N N/A 29.95 1014 6 10 0.00 0.00
1:56 pm 13:56 Cloudy with Mist and Fog 37 2.8 35 1.7 93 93 W 7 11 29.91 1013 6 10 N/A
2:52 pm 14:52 Cloudy 39 4 36 2 87 87 SW 12 19 29.88 1012 10 16 0.00 0.00
2:56 pm 14:56 Cloudy 39 3.9 35 1.7 86 86 SW 9 15 29.87 1012 10 16 0.00 0.00
3:56 pm 15:56 Cloudy with Light Rain 38 3.3 35 1.7 89 89 WSW 10 17 29.87 1012 10 16 0.00 0.00
4:24 pm 16:24 Cloudy with Light Rain 37 3 36 2 93 93 SW 13 20 29.86 1011 6 10 0.00 0.00
4:56 pm 16:56 Cloudy 37 2.8 37 2.8 100 100 SW 12 19 29.85 1011 7 11 0.00 0.00
5:37 pm 17:37 Cloudy with Light Rain 37 3 37 3 100 100 WSW 15 24 29.85 1011 4 6 0.06 1.52
5:56 pm 17:56 Cloudy 37 2.8 37 2.8 100 100 WSW 12 19 29.84 1011 7 11 0.07 1.78
6:56 pm 18:56 Cloudy 38 3.3 37 2.8 97 97 WSW 15 24 29.85 1011 9 14 0.20 5.08
7:28 pm 19:28 Cloudy 37 3 36 2 93 93 WSW 15 24 29.86 1011 10 16 0.14 3.56
7:56 pm 19:56 Cloudy 37 2.8 35 1.7 93 93 W 16 26 29.85 1011 10 16 0.17 4.32
9:56 pm 21:56 Cloudy 36 2.2 32 undefined 86 86 WNW 17 28 29.88 1012 10 16 N/A
10:56 pm 22:56 Cloudy 35 1.7 32 undefined 89 89 W 10 17 29.88 1012 10 16 N/A
11:56 pm 23:56 Cloudy 35 1.7 30 -1.1 82 82 WNW 20 31 29.87 1012 10 16 N/A

Powered by AerisWeather